Regional Weather Roundup
Issued by NWS

Home | Current Version | Previous Version | Graphics & Text | Print | Product List | Glossary On
Versions: 1 2 3 4 5 6 7 8 9 10 11 12 13 14 15 16 17 18 19 20 21 22 23 24 25 26 27 28 29 30 31 32 33 34 35 36 37 38 39 40 41 42 43 44 45 46 47 48 49 50
000
ASUS43 KOAX 061110
RWRNE

WEATHER ROUNDUP FOR NEBRASKA
NATIONAL WEATHER SERVICE OMAHA NE
600 AM CDT WED MAY 06 2015

NOTES: SATELLITE DATA IS BEING USED TO AUGMENT CLOUD COVER ABOVE
       12000 FEET.
       "FAIR" INDICATES FEW OR NO CLOUDS BELOW 12,000 FEET WITH NO
       SIGNIFICANT WEATHER AND/OR OBSTRUCTIONS TO VISIBILITY.

  * THESE STATIONS DO NOT REPORT WEATHER SUCH AS RAIN...SNOW OR FOG.

NEZ001>004-019>022-054>056-061200-
NEBRASKA PANHANDLE

CITY           SKY/WX    TMP DP  RH WIND       PRES   REMARKS
SCOTTSBLUFF    LGT RAIN  53  53 100 E8        29.68F FOG
ALLIANCE       CLOUDY    53  52  96 SE8       29.68F
CHADRON        LGT RAIN  53  52  96 NE6       29.70F FOG
KIMBALL        CLOUDY    51  50  99 E8        29.67R
SIDNEY         CLOUDY    51  50  96 SE15      29.69R FOG
$$

NEZ057>060-069>072-079>082-061200-
SOUTHWEST NEBRASKA

CITY           SKY/WX    TMP DP  RH WIND       PRES   REMARKS
NORTH PLATTE   RAIN      58  56  93 SE10      29.73F
IMPERIAL       CLOUDY    52  50  93 SE13      29.70F
LEXINGTON      CLOUDY    60  58  94 SE16      29.75F
MCCOOK         CLOUDY    60  57  89 SE8       29.72R
OGALLALA       CLOUDY    54  52  93 S15       29.71S
$$

NEZ005>010-023>029-035>040-094-061200-
NORTH CENTRAL NEBRASKA

CITY           SKY/WX    TMP DP  RH WIND       PRES   REMARKS
VALENTINE      CLOUDY    58  56  93 SE12      29.75F
AINSWORTH      CLOUDY    59  58  97 SE14      29.77F
BROKEN BOW     CLOUDY    60  58  92 SE16G26   29.76F
O`NEILL        CLOUDY    62  60  94 SE9       29.82F
ORD            CLOUDY    60  57  89 SE12      29.78F
THEDFORD       CLOUDY    59  58  96 SE12      29.75F
$$

NEZ041-046>049-061>064-073>077-083>087-061200-
SOUTH CENTRAL NEBRASKA

CITY           SKY/WX    TMP DP  RH WIND       PRES   REMARKS
GRAND ISLAND   CLOUDY    61  58  90 SE13      29.80F
AURORA         CLOUDY    61  61  99 SE12G17   29.80F
HASTINGS       CLOUDY    61  58  90 SE9       29.78F
HEBRON         LGT RAIN  61  59  92 SE7       29.78F
HOLDREGE       CLOUDY    60  58  93 SE14      29.75F
KEARNEY *      CLOUDY    61  57  88 SE12      29.77F
YORK           LGT RAIN  61  59  94 SE12      29.81F
$$

NEZ011>018-030>034-042>045-061200-
NORTHEAST NEBRASKA

CITY           SKY/WX    TMP DP  RH WIND       PRES   REMARKS
NORFOLK        CLOUDY    62  60  93 E8        29.85S
ALBION         CLOUDY    61  59  94 SE12      29.82F
BLAIR          CLOUDY    62  58  86 SE12      29.89
COLUMBUS *     MOCLDY    63  55  77 SE9       29.86S
FREMONT        LGT RAIN  64  61  90 E8        29.88S
TEKAMAH        CLOUDY    63  60  90 SE10      29.89S
WAYNE          CLOUDY    62  59  91 SE9       29.88S
$$

NEZ050>053-065>068-078-088>093-061200-
SOUTHEAST NEBRASKA

CITY           SKY/WX    TMP DP  RH WIND       PRES   REMARKS
LINCOLN        LGT RAIN  63  61  93 SE14G23   29.85F
OMAHA EPPLEY   CLOUDY    64  60  87 SE14      29.89F
BEATRICE       LGT RAIN  62  60  94 SE16G22   29.82F
FALLS CITY     LGT RAIN  63  59  87 SE10      29.89S
NEBRASKA CITY  RAIN      63  61  96 SE17      29.89F
PLATTSMOUTH    LGT RAIN  63  59  88 SE9       29.90S
$$

NEZ044-045-051>053-067-061200-
OMAHA AREA

CITY           SKY/WX    TMP DP  RH WIND       PRES   REMARKS
OMAHA EPPLEY   CLOUDY    64  60  87 SE14      29.89F
BLAIR          CLOUDY    62  58  86 SE12      29.89
FREMONT        LGT RAIN  64  61  90 E8        29.88S
MILLARD        LGT RAIN  64  60  88 SE8       29.89R
OFFUTT AFB     LGT RAIN  64  60  88 SE10      29.89S
PLATTSMOUTH    LGT RAIN  63  59  88 SE9       29.90S
$$


USA.gov is the U.S. government's official web portal to all federal, state and local government web resources and services.